Wind_Speed
18 19 21 21 21 21 21 22 23 23 24 25 26 27 28 29 30 30 32 33 35 36 37 38 38 38 38 39 39 40 41 42 43 43 43 43 42 41 40 38 38 39
19 20 21 22 23 23 23 24 24 25 26 27 28 29 30 30 31 32 33 34 35 37 39 40 40 40 40 40 40 41 42 43 43 43 44 44 44 43 42 41 40 40
20 21 22 24 24 25 25 26 26 27 28 29 30 31 31 32 33 34 34 35 36 38 39 41 42 42 42 42 42 42 42 43 44 44 45 45 46 45 44 42 41 41
22 22 23 24 26 27 27 28 29 29 29 31 32 33 33 34 34 35 36 37 38 39 40 42 43 44 44 44 43 43 43 44 45 45 45 46 46 46 45 44 43 43
24 23 24 25 27 28 30 31 31 31 31 33 34 35 35 35 36 36 37 38 39 40 41 43 44 45 45 45 45 45 44 45 45 46 46 46 47 47 47 46 45 45
26 25 25 27 28 30 32 33 34 34 34 34 36 37 37 37 38 38 39 39 41 41 43 44 45 46 46 47 47 46 46 46 47 47 47 47 48 49 49 48 47 47
28 27 27 28 30 32 33 34 36 36 36 36 38 39 39 40 40 40 41 41 42 43 44 45 46 47 47 47 48 48 48 48 48 48 49 49 50 50 50 50 50 50
30 30 29 30 31 33 35 36 37 38 38 38 39 41 42 42 42 43 43 44 44 44 44 45 47 48 48 48 48 48 49 49 50 50 50 51 52 52 52 52 51 51
34 33 33 33 34 35 37 38 39 40 40 40 41 42 43 44 44 46 46 45 45 44 44 45 47 49 49 50 49 49 50 51 52 52 52 53 53 54 54 54 53 52
37 37 37 37 37 38 39 40 40 41 42 42 43 44 45 45 46 47 47 46 44 45 46 47 49 50 51 52 52 51 52 53 53 54 54 55 55 55 55 55 54 53
39 39 40 40 40 41 41 41 42 43 44 45 46 46 47 47 47 48 48 47 46 48 49 49 51 52 52 53 54 54 54 55 56 56 56 57 58 57 56 56 55 54
40 41 42 43 43 43 43 43 43 44 46 47 47 48 48 49 49 50 50 50 50 51 51 51 53 53 53 53 55 56 57 57 58 58 59 60 57 54 55 57 57 56
43 43 44 45 45 45 44 44 45 46 47 48 49 50 50 50 51 52 52 53 53 52 52 53 54 55 55 54 55 57 58 58 58 59 59 57 51 50 55 60 59 58
45 45 46 47 47 46 46 46 47 48 49 51 51 52 51 51 52 54 54 55 55 55 54 55 56 57 57 56 56 58 59 60 59 58 56 52 49 53 59 61 61 62
47 47 48 48 48 48 48 48 48 49 51 52 53 53 52 51 54 56 56 56 57 57 57 58 59 59 59 58 58 60 61 61 60 59 56 53 54 58 60 61 64 64
49 49 50 50 50 50 49 49 50 51 52 52 53 53 52 54 57 58 57 58 59 59 60 60 61 62 60 60 61 62 62 62 63 62 60 59 60 61 62 64 65 65
50 51 52 53 52 51 51 50 51 51 52 53 53 53 54 57 59 59 59 59 60 61 62 62 63 63 61 61 63 63 62 63 66 66 65 64 64 65 65 66 65 66
52 53 54 53 52 51 51 50 51 52 54 55 56 56 57 59 60 60 60 61 62 63 64 64 65 63 61 63 65 64 64 65 67 68 68 67 67 67 67 66 66 66
55 55 55 54 53 53 52 52 54 56 57 59 59 60 60 60 61 61 62 63 64 65 65 66 65 63 62 65 67 65 65 66 68 69 69 69 69 69 68 67 67 66
56 56 57 56 56 57 56 57 59 60 61 62 62 62 62 62 62 63 64 65 66 66 67 67 66 65 66 68 68 67 67 68 68 69 70 70 70 70 69 68 67 66
58 59 60 60 61 61 61 62 63 63 64 64 64 64 64 64 64 65 66 67 68 68 68 68 68 68 69 70 70 69 69 70 69 69 70 71 70 70 69 68 67 67
62 63 63 64 64 64 65 65 66 66 66 67 66 66 66 66 66 66 67 69 70 70 70 70 71 71 71 71 71 71 71 71 70 70 70 70 70 70 68 67 67 66
66 66 67 68 68 68 69 69 69 69 70 69 68 69 69 69 68 67 68 70 72 72 71 72 72 72 72 72 72 73 73 73 72 71 70 70 70 69 68 67 66 63
69 70 71 71 71 72 72 72 73 73 73 72 71 71 72 71 69 68 70 72 73 73 72 72 71 72 73 73 74 74 74 74 73 71 70 70 70 68 67 66 63 60
73 73 74 75 75 74 75 75 76 76 75 74 73 73 74 72 70 70 72 74 74 73 72 70 71 73 74 74 74 75 74 74 72 70 71 70 68 66 66 63 60 59
77 76 76 77 77 77 77 78 79 79 78 77 76 75 75 72 70 70 72 72 73 73 71 70 71 74 75 74 74 74 73 72 71 71 71 69 66 65 63 61 59 59
Wind_Direction
297 301 304 307 309 311 312 314 315 317 319 320 321 323 325 327 330 332 334 335 336 337 337 338 339 341 342 342 342 342 342 342 342 341 340 338 337 338 338 337 334 332
290 295 300 303 306 308 310 312 313 314 316 317 318 319 322 325 327 329 331 333 334 334 335 335 337 339 340 340 340 340 340 340 340 339 338 336 335 336 337 336 334 332
285 290 295 299 303 306 308 309 310 312 313 314 315 317 320 322 325 327 328 330 331 332 332 333 335 336 337 338 338 338 338 338 337 337 336 335 334 335 335 336 334 332
282 287 292 296 300 303 305 306 308 310 311 312 313 315 317 320 322 324 326 327 328 330 330 331 333 334 335 336 337 336 336 336 336 335 334 334 334 334 335 335 334 332
282 286 289 293 297 300 302 304 306 307 309 310 311 312 315 318 320 322 324 325 326 328 328 329 331 332 333 334 334 334 334 334 333 333 332 333 333 334 334 334 334 333
283 285 288 291 294 297 300 302 303 305 307 308 309 311 313 316 318 320 322 323 325 326 327 327 329 330 331 331 332 333 333 332 331 330 331 332 332 333 333 334 333 332
283 284 287 290 293 295 298 300 301 302 305 307 308 310 312 315 317 319 320 322 323 324 324 326 327 328 329 329 330 331 331 330 329 329 330 332 332 332 332 332 332 331
281 283 285 288 291 293 296 298 299 300 303 305 307 309 311 313 316 318 319 320 321 322 323 324 326 326 327 328 329 329 329 328 327 328 330 331 332 332 332 331 331 330
279 282 285 287 289 291 294 296 297 299 301 304 306 309 311 312 315 317 318 318 318 319 321 322 324 325 325 327 328 328 327 327 327 328 330 331 331 331 331 330 330 329
278 281 284 286 288 290 292 294 296 298 300 303 306 309 310 312 314 316 318 317 316 318 319 319 320 322 324 326 327 327 326 326 326 328 329 331 330 330 329 329 328 327
276 279 283 285 286 289 291 294 296 298 299 302 306 308 309 311 313 314 316 315 314 316 317 317 318 320 322 324 325 325 325 325 326 327 329 330 329 328 327 327 327 326
276 279 282 284 285 288 291 294 296 298 300 302 304 306 308 309 311 312 313 313 313 315 316 316 315 316 318 321 323 323 324 325 326 327 329 330 328 325 325 326 326 324
276 279 281 283 285 288 291 294 296 298 300 302 303 305 306 307 310 311 311 312 313 314 315 314 314 314 315 318 321 321 322 324 325 326 330 331 327 321 322 324 324 323
277 279 281 283 286 289 292 295 297 299 300 301 302 303 304 306 308 309 310 311 312 313 313 313 313 313 314 317 319 320 321 322 323 325 329 328 321 316 318 319 320 320
277 279 281 283 286 289 292 294 296 298 299 300 301 303 303 303 306 307 308 309 310 311 312 312 312 313 314 316 318 319 319 320 320 323 325 323 318 317 317 317 318 318
277 279 281 284 286 289 291 293 295 296 297 298 300 301 301 301 303 305 306 308 309 309 310 310 311 312 313 315 317 318 318 318 319 321 322 321 320 319 319 319 318 318
277 280 282 284 286 288 290 292 293 294 294 295 297 298 298 300 302 303 304 306 306 307 308 309 310 311 311 313 316 317 317 318 319 320 321 321 321 321 321 320 318 317
278 280 283 284 284 286 289 290 291 292 292 292 294 295 296 298 300 301 302 303 304 306 307 308 310 310 309 312 315 315 315 317 318 318 319 320 320 320 321 319 318 318
277 280 282 282 282 285 288 289 289 289 289 290 292 294 295 297 298 299 300 302 303 304 305 307 309 308 307 311 314 314 314 316 317 318 318 319 319 320 320 319 318 318
275 278 279 280 281 284 286 286 286 286 287 289 291 293 294 295 296 298 299 300 301 303 304 306 307 306 306 309 312 313 314 316 317 317 317 317 319 319 319 318 318 318
274 276 278 279 280 282 283 284 284 284 285 287 290 291 292 293 295 296 298 299 300 301 303 304 305 305 305 307 310 312 313 315 316 315 315 316 317 318 318 318 317 318
273 275 277 279 280 281 281 282 282 283 284 286 288 289 290 292 293 295 297 298 299 300 302 302 303 304 305 307 309 311 312 313 314 314 314 315 316 317 317 317 317 319
273 275 277 278 279 280 280 281 281 282 283 285 286 287 289 290 292 294 296 297 298 299 300 300 301 303 305 308 309 310 311 312 312 313 313 314 316 316 316 317 318 320
273 275 276 277 278 278 279 279 280 281 282 284 285 286 287 289 292 294 295 296 296 297 298 299 301 303 305 307 308 309 310 311 312 312 313 314 315 316 316 318 319 320
273 273 274 275 276 277 278 279 279 280 282 283 284 285 286 289 291 293 294 295 295 295 296 298 300 302 305 306 308 309 309 310 311 312 312 314 315 316 317 318 318 318
271 271 272 274 275 276 277 278 279 280 281 282 283 284 286 288 290 291 292 292 292 293 295 297 299 302 304 306 307 308 309 310 311 311 313 315 316 317 318 317 316 316
Height
10984 10985 10984 10984 10984 10984 10983 10983 10982 10981 10980 10979 10978 10977 10976 10974 10973 10972 10970 10968 10966 10964 10962 10961 10959 10958 10956 10953 10951 10949 10946 10943 10941 10939 10937 10934 10932 10930 10928 10926 10924 10921
10982 10982 10982 10982 10982 10982 10981 10980 10980 10979 10978 10977 10975 10974 10973 10972 10971 10969 10968 10966 10964 10962 10960 10958 10957 10955 10953 10951 10949 10946 10944 10941 10939 10937 10935 10932 10930 10928 10926 10924 10921 10918
10979 10979 10979 10979 10979 10979 10979 10978 10977 10977 10975 10974 10973 10972 10971 10970 10968 10966 10965 10964 10962 10961 10958 10956 10954 10952 10950 10948 10946 10944 10941 10939 10937 10935 10932 10930 10927 10925 10923 10921 10918 10916
10976 10976 10976 10976 10976 10976 10976 10975 10975 10974 10973 10972 10970 10969 10968 10967 10966 10964 10962 10960 10959 10958 10956 10954 10952 10949 10947 10945 10943 10941 10939 10937 10935 10932 10930 10927 10925 10922 10920 10917 10915 10912
10973 10973 10973 10973 10973 10973 10973 10973 10972 10971 10970 10969 10967 10966 10966 10965 10963 10961 10960 10958 10956 10955 10953 10951 10949 10947 10944 10942 10940 10938 10936 10934 10932 10929 10927 10924 10921 10919 10916 10914 10911 10908
10970 10970 10970 10970 10970 10970 10970 10970 10969 10968 10968 10966 10965 10963 10962 10962 10960 10959 10957 10956 10954 10952 10950 10948 10946 10944 10942 10939 10936 10935 10933 10931 10928 10926 10924 10921 10918 10915 10912 10909 10907 10904
10967 10967 10967 10967 10967 10967 10967 10966 10966 10965 10964 10964 10962 10960 10959 10958 10957 10955 10954 10952 10951 10949 10947 10945 10943 10941 10939 10937 10934 10931 10929 10927 10925 10922 10920 10917 10914 10911 10908 10905 10902 10899
10964 10964 10964 10964 10964 10963 10963 10963 10962 10961 10961 10960 10959 10958 10956 10954 10953 10952 10950 10949 10947 10945 10944 10942 10940 10937 10935 10934 10932 10930 10926 10923 10920 10918 10916 10913 10910 10907 10903 10900 10898 10894
10961 10961 10961 10960 10960 10960 10960 10959 10959 10958 10957 10957 10956 10955 10953 10951 10950 10948 10947 10945 10943 10942 10940 10938 10936 10934 10931 10930 10929 10927 10923 10919 10916 10914 10912 10909 10906 10903 10899 10896 10893 10890
10957 10957 10957 10957 10957 10956 10956 10956 10955 10954 10954 10953 10952 10951 10950 10948 10947 10945 10943 10941 10940 10938 10937 10935 10932 10929 10927 10925 10924 10922 10919 10915 10912 10909 10907 10905 10902 10898 10895 10892 10888 10885
10954 10953 10953 10953 10953 10953 10953 10952 10952 10951 10950 10949 10948 10947 10946 10944 10943 10941 10939 10938 10936 10934 10933 10930 10927 10925 10923 10921 10918 10915 10913 10911 10908 10905 10903 10901 10898 10894 10890 10887 10884 10881
10950 10950 10950 10949 10949 10949 10949 10948 10948 10947 10945 10944 10943 10942 10941 10940 10939 10937 10935 10933 10932 10930 10928 10925 10922 10920 10919 10918 10915 10910 10907 10905 10903 10901 10899 10897 10893 10889 10885 10882 10880 10877
10946 10946 10946 10946 10945 10945 10945 10944 10943 10942 10941 10940 10939 10937 10936 10935 10933 10932 10930 10928 10926 10925 10923 10920 10917 10915 10914 10914 10911 10907 10903 10901 10899 10897 10896 10893 10888 10884 10881 10878 10875 10872
10942 10942 10942 10941 10941 10941 10941 10940 10939 10938 10936 10935 10933 10932 10931 10929 10928 10926 10924 10922 10920 10919 10918 10915 10911 10909 10908 10907 10906 10902 10899 10896 10895 10894 10894 10891 10885 10880 10877 10873 10869 10866
10937 10937 10937 10936 10936 10936 10936 10935 10934 10933 10931 10930 10928 10926 10925 10923 10922 10920 10918 10916 10914 10912 10911 10908 10905 10903 10901 10900 10899 10897 10893 10891 10889 10889 10889 10887 10881 10877 10873 10868 10863 10860
10932 10931 10931 10931 10931 10930 10930 10930 10929 10928 10926 10924 10923 10921 10919 10917 10915 10913 10911 10909 10907 10905 10904 10902 10899 10897 10895 10894 10893 10891 10888 10884 10881 10881 10882 10879 10876 10872 10868 10862 10857 10852
10926 10925 10925 10925 10925 10924 10924 10924 10923 10922 10921 10919 10918 10916 10914 10911 10909 10907 10905 10903 10901 10899 10898 10896 10894 10892 10890 10888 10887 10885 10882 10878 10874 10871 10872 10871 10868 10865 10861 10856 10851 10845
10920 10920 10919 10919 10919 10918 10918 10918 10917 10916 10914 10913 10912 10911 10909 10906 10903 10901 10900 10898 10896 10894 10892 10890 10888 10886 10884 10882 10881 10879 10876 10873 10868 10864 10863 10862 10860 10858 10854 10850 10844 10839
10914 10913 10912 10912 10912 10912 10912 10912 10911 10909 10907 10905 10905 10904 10903 10901 10898 10896 10894 10892 10890 10888 10886 10884 10882 10880 10878 10876 10876 10874 10871 10868 10863 10858 10856 10854 10852 10850 10847 10842 10838 10833
10908 10907 10905 10905 10906 10906 10906 10906 10904 10902 10900 10898 10898 10897 10896 10894 10892 10890 10888 10886 10884 10882 10880 10879 10876 10874 10872 10871 10870 10868 10865 10862 10859 10853 10849 10847 10846 10843 10839 10835 10830 10826
10901 10900 10899 10899 10899 10899 10899 10898 10897 10895 10893 10892 10891 10890 10889 10888 10886 10884 10882 10879 10878 10876 10874 10872 10870 10868 10866 10865 10863 10862 10859 10856 10854 10849 10844 10842 10840 10837 10832 10828 10823 10819
10893 10892 10892 10892 10892 10892 10891 10890 10889 10888 10887 10886 10886 10884 10882 10881 10880 10879 10876 10873 10871 10869 10867 10865 10863 10861 10859 10858 10856 10855 10853 10850 10848 10844 10840 10837 10835 10831 10826 10822 10817 10813
10885 10885 10885 10884 10884 10884 10883 10881 10881 10880 10880 10880 10880 10878 10876 10875 10875 10874 10871 10867 10864 10863 10861 10858 10856 10854 10853 10852 10850 10848 10846 10844 10842 10839 10834 10832 10829 10825 10820 10815 10810 10806
10877 10877 10876 10875 10876 10875 10874 10873 10872 10872 10872 10873 10873 10871 10869 10868 10869 10868 10865 10861 10858 10856 10855 10852 10850 10848 10846 10846 10844 10842 10840 10838 10835 10832 10829 10826 10823 10818 10812 10808 10804 10800
10868 10868 10867 10867 10867 10867 10866 10865 10863 10863 10864 10866 10866 10864 10862 10863 10864 10862 10859 10855 10852 10849 10848 10847 10845 10843 10841 10840 10838 10836 10834 10831 10828 10825 10822 10819 10815 10810 10805 10801 10797 10793
10858 10860 10860 10859 10858 10858 10858 10856 10855 10855 10856 10857 10857 10857 10857 10858 10858 10857 10854 10850 10846 10843 10842 10842 10840 10837 10836 10835 10832 10829 10826 10824 10821 10817 10814 10811 10807 10802 10798 10794 10790 10787